Weather History for Cape Race, NL

Change the Weather History Date:

Sunday, November 18, 2012

  Actual Average Record
Temperature  
Mean Temperature 30 °F -  
Max Temperature 37 °F - - ()
Min Temperature 22 °F - - ()
Degree Days  
Heating Degree Days 36    
Moisture  
Dew Point 24 °F    
Average Humidity 82    
Maximum Humidity 94    
Minimum Humidity 56    
Precipitation  
Precipitation 0.00 in - - ()
Sea Level Pressure  
Sea Level Pressure 30.43 in    
Wind  
Wind Speed 9 mph ()    
Max Wind Speed 20 mph    
Max Gust Speed 25 mph    
T = Trace of Precipitation, MM = Missing Value Source: Averaged Metar Reports

Daily Weather History Graph

Daily Weather History Graph

Search for Another Location

Airport:

Trip Planner

Search our weather history database for the weather conditions in past years. The results will help you decide how hot, cold, wet, or windy it might be!

Date:

Astronomy

Nov. 18, 2012 Rise Set
Actual Time 7:09 AM NST 4:25 PM NST
Civil Twilight 6:36 AM NST 4:58 PM NST
Nautical Twilight 5:59 AM NST 5:35 PM NST
Astronomical Twilight 5:23 AM NST 6:11 PM NST
Moon 11:29 AM NST (11/18) 9:42 PM NST (11/18)
Length of Visible Light 10h 22m
Length of Day
9h 15m
Waxing Crescent, 29% of the Moon is Illuminated
Nov 18
Waxing Crescent
Nov 20
First Quarter
Nov 28
Full
Dec 6
Last Quarter
Dec 13
New

Hourly Weather History & Observations

Time (NST) Temp. Windchill Dew Point Humidity Pressure Visibility Wind Dir Wind Speed Gust Speed Precip Events Conditions
12:30 AM 26.6 °F 19.1 °F 25.2 °F 94% 30.32 in - NW 6.9 mph - N/A   Unknown
1:30 AM 27.9 °F 19.8 °F 25.9 °F 92% 30.34 in - NNW 8.1 mph - N/A   Unknown
2:30 AM 27 °F - 24 °F 85% 30.36 in - North 5.8 mph - -  
2:30 AM 27.1 °F 20.7 °F 24.3 °F 89% 30.36 in - North 5.8 mph - N/A   Unknown
3:30 AM 26.1 °F 16.2 °F 23.4 °F 90% 30.36 in - NNW 10.4 mph - N/A   Unknown
4:30 AM 26.2 °F 19.6 °F 21.7 °F 83% 30.38 in - NNW 5.8 mph - N/A   Unknown
5:30 AM 25 °F - 22 °F 83% 30.39 in - NW 5.8 mph - -  
5:30 AM 25.0 °F 18.1 °F 21.9 °F 88% 30.39 in - NW 5.8 mph - N/A   Unknown
6:30 AM 23.9 °F 15.8 °F 21.4 °F 90% 30.40 in - WNW 6.9 mph - N/A   Unknown
7:30 AM 23.5 °F 14.5 °F 21.4 °F 91% 30.42 in - West 8.1 mph - N/A   Unknown
8:30 AM 30 °F - 27 °F 85% 30.43 in - WNW 5.8 mph - -  
9:30 AM 31.5 °F 26.8 °F 28.8 °F 90% 30.44 in - WNW 4.6 mph - N/A   Unknown
10:30 AM 31.5 °F 24.2 °F 29.1 °F 91% 30.43 in - NW 8.1 mph - N/A   Unknown
11:30 AM 36 °F - 29 °F 67% 30.42 in - NNW 17.3 mph - -  
11:30 AM 35.6 °F 25.5 °F 28.9 °F 77% 30.42 in - NNW 17.3 mph 24.2 mph N/A   Unknown
12:30 PM 36.1 °F 25.5 °F 27.1 °F 70% 30.42 in - NNW 19.6 mph - N/A   Unknown
1:30 PM 36.3 °F 26.1 °F 25.3 °F 64% 30.43 in - NNW 18.4 mph 25.3 mph N/A   Unknown
2:30 PM 36 °F - 26 °F 56% 30.44 in - NNW 16.1 mph - -  
2:30 PM 35.8 °F 26.1 °F 25.9 °F 67% 30.44 in - NNW 16.1 mph - N/A   Unknown
3:30 PM 33.6 °F 24.1 °F 23.5 °F 67% 30.45 in - NW 13.8 mph - N/A   Unknown
4:30 PM 30.2 °F 21.9 °F 24.1 °F 78% 30.46 in - NW 9.2 mph - N/A   Unknown
5:30 PM 27 °F - 23 °F 79% 30.48 in - WNW 6.9 mph - -  
5:30 PM 27.0 °F 19.5 °F 23.0 °F 85% 30.48 in - WNW 6.9 mph - N/A   Unknown
6:30 PM 25.9 °F 16.6 °F 22.6 °F 88% 30.49 in - WNW 9.2 mph - N/A   Unknown
7:30 PM 27.3 °F 17.1 °F 25.0 °F 91% 30.50 in - WNW 11.5 mph - N/A   Unknown
8:30 PM 27 °F - 23 °F 78% 30.50 in - NW 11.5 mph - -  
8:30 PM 26.6 °F 16.2 °F 22.8 °F 86% 30.50 in - NW 11.5 mph - N/A   Unknown
9:30 PM 26.2 °F 15.2 °F 22.3 °F 85% 30.50 in - NW 12.7 mph - N/A   Unknown
10:30 PM 25.3 °F 13.6 °F 21.2 °F 84% 30.51 in - NW 13.8 mph - N/A   Unknown
11:30 PM 24 °F - 20 °F 77% 30.50 in - NNW 13.8 mph - -  
11:30 PM 23.7 °F 11.5 °F 19.8 °F 85% 30.50 in - NNW 13.8 mph - N/A   Unknown